TimeCDT,TemperatureF,Dew PointF,Humidity,Sea Level PressureIn,VisibilityMPH,Wind Direction,Wind SpeedMPH,Gust SpeedMPH,PrecipitationIn,Events,Conditions,WindDirDegrees,DateUTC
12:51 AM,57.2,55.4,94,29.91,10.0,North,4.6,-,N/A,,Overcast,10,2011-10-28 05:51:00
12:53 AM,57.9,55.0,90,29.92,10.0,North,5.8,-,N/A,,Overcast,10,2011-10-28 05:53:00
1:50 AM,55.4,53.6,94,29.95,8.0,NNW,9.2,-,0.06,Rain,Light Rain,330,2011-10-28 06:50:00
1:53 AM,55.9,54.0,93,29.96,10.0,NNW,11.5,-,0.06,Rain,Light Rain,330,2011-10-28 06:53:00
2:42 AM,53.6,51.8,94,29.96,10.0,North,15.0,19.6,0.01,Rain,Light Rain,10,2011-10-28 07:42:00
2:53 AM,53.6,51.8,94,29.96,10.0,North,10.4,-,N/A,Rain,Light Rain,350,2011-10-28 07:53:00
3:04 AM,53.6,51.8,94,29.97,8.0,North,8.1,-,0.02,Rain,Rain,350,2011-10-28 08:04:00
3:28 AM,53.6,51.8,94,29.96,10.0,Variable,6.9,-,0.03,Rain,Light Rain,0,2011-10-28 08:28:00
3:35 AM,53.6,51.8,94,29.96,10.0,North,6.9,-,0.04,Rain,Light Rain,10,2011-10-28 08:35:00
3:45 AM,53.6,51.8,94,29.97,10.0,NNW,10.4,-,0.04,Rain,Light Rain,340,2011-10-28 08:45:00
3:53 AM,54.0,52.0,93,29.98,10.0,NNW,8.1,-,0.04,Rain,Light Rain,330,2011-10-28 08:53:00
4:23 AM,53.6,51.8,94,29.96,10.0,North,6.9,-,0.00,Rain,Light Rain,360,2011-10-28 09:23:00
4:51 AM,53.6,51.8,94,29.98,10.0,NNW,6.9,-,0.00,,Overcast,330,2011-10-28 09:51:00
4:52 AM,53.1,51.1,93,29.99,10.0,NNW,8.1,-,0.00,,Overcast,330,2011-10-28 09:52:00
5:53 AM,53.1,50.0,89,30.01,10.0,North,9.2,-,N/A,,Overcast,360,2011-10-28 10:53:00
6:53 AM,52.0,50.0,93,30.04,10.0,North,8.1,-,N/A,,Overcast,350,2011-10-28 11:53:00
7:15 AM,51.8,50.0,94,30.03,10.0,North,11.5,18.4,N/A,,Overcast,350,2011-10-28 12:15:00
7:53 AM,52.0,50.0,93,30.06,5.0,North,9.2,-,N/A,,Overcast,360,2011-10-28 12:53:00
8:53 AM,51.1,48.9,92,30.08,10.0,NNW,8.1,-,N/A,,Overcast,340,2011-10-28 13:53:00
9:53 AM,52.0,48.9,89,30.10,5.0,North,10.4,-,N/A,,Overcast,350,2011-10-28 14:53:00
10:53 AM,52.0,48.0,86,30.11,10.0,North,13.8,-,0.01,,Overcast,360,2011-10-28 15:53:00
11:33 AM,53.6,48.2,82,30.10,10.0,North,11.5,18.4,N/A,,Overcast,10,2011-10-28 16:33:00
11:53 AM,53.1,48.0,83,30.11,10.0,North,9.2,-,N/A,,Overcast,360,2011-10-28 16:53:00
12:53 PM,53.1,46.9,80,30.10,10.0,NNW,10.4,-,N/A,,Overcast,340,2011-10-28 17:53:00
1:53 PM,53.1,46.0,77,30.09,10.0,North,12.7,-,N/A,,Overcast,350,2011-10-28 18:53:00
2:53 PM,53.1,46.0,77,30.09,10.0,NNW,12.7,-,N/A,,Overcast,340,2011-10-28 19:53:00
3:53 PM,54.0,46.0,75,30.10,10.0,North,13.8,19.6,N/A,,Overcast,350,2011-10-28 20:53:00
4:21 PM,53.6,46.4,77,30.09,10.0,North,10.4,-,N/A,,Overcast,360,2011-10-28 21:21:00
4:53 PM,54.0,46.0,75,30.12,10.0,North,11.5,-,N/A,,Overcast,360,2011-10-28 21:53:00
5:53 PM,54.0,46.0,75,30.14,10.0,North,9.2,-,N/A,,Overcast,350,2011-10-28 22:53:00
6:53 PM,53.1,43.0,69,30.17,10.0,North,11.5,-,N/A,,Overcast,360,2011-10-28 23:53:00
7:53 PM,50.0,42.1,74,30.20,10.0,North,5.8,-,N/A,,Clear,360,2011-10-29 00:53:00
8:53 PM,48.0,41.0,77,30.21,10.0,North,3.5,-,N/A,,Clear,350,2011-10-29 01:53:00
9:53 PM,46.0,41.0,83,30.22,10.0,Calm,Calm,-,N/A,,Clear,0,2011-10-29 02:53:00
10:53 PM,43.0,39.9,89,30.22,10.0,NW,4.6,-,N/A,,Clear,320,2011-10-29 03:53:00
11:53 PM,43.0,39.9,89,30.22,10.0,NNW,3.5,-,N/A,,Clear,330,2011-10-29 04:53:00